This is the latest recevied weather packets stored in our database for station/object ON1TG-13. If no packets are shown the sender has not sent any weather packets the latest 1 day(s).
| Time | Temp. | Humidity | Pressure | Rain* | Wind** | Luminosity | Snow |
|---|---|---|---|---|---|---|---|
| 1778014447 | 18.89° C | 21% | - | - | 7.15 m/s, 21° | - | - |
| 1778013531 | 18.33° C | 21% | - | - | 7.15 m/s, 14° | - | - |
| 1778012618 | 18.89° C | 21% | - | - | 8.49 m/s, 16° | - | - |
| 1778011702 | 19.44° C | 21% | - | - | 8.05 m/s, 6° | - | - |
| 1778010789 | 18.89° C | 21% | - | - | 6.71 m/s, 16° | - | - |
| 1778009866 | 18.33° C | 21% | - | - | 8.05 m/s, 19° | - | - |
| 1778008951 | 19.44° C | 21% | - | - | 7.15 m/s, 20° | - | - |
| 1778008037 | 18.89° C | 21% | - | - | 7.6 m/s, 17° | - | - |
| 1778007125 | 18.89° C | 21% | - | - | 7.6 m/s, 10° | - | - |
| 1778006216 | 19.44° C | 21% | - | - | 7.15 m/s, 19° | - | - |
| 1778005308 | 20° C | 21% | - | - | 6.71 m/s, 3° | - | - |
| 1778004398 | 19.44° C | 21% | - | - | 8.05 m/s, 17° | - | - |
| 1778003488 | 19.44° C | 21% | - | - | 7.6 m/s, 23° | - | - |
| 1778002580 | 18.89° C | 21% | - | - | 8.05 m/s, 20° | - | - |
| 1778001673 | 18.89° C | 21% | - | - | 6.71 m/s, 19° | - | - |
| 1778000766 | 18.89° C | 21% | - | - | 6.26 m/s, 8° | - | - |
| 1777999859 | 20° C | 21% | - | - | 7.15 m/s, 16° | - | - |
| 1777998951 | 19.44° C | 21% | - | - | 7.6 m/s, 11° | - | - |
| 1777998044 | 20.56° C | 21% | - | - | 6.71 m/s, 10° | - | - |
| 1777997137 | 20.56° C | 21% | - | - | 8.05 m/s, 7° | - | - |
| 1777996229 | 20° C | 21% | - | - | 5.36 m/s, 21° | - | - |
| 1777995321 | 19.44° C | 21% | - | - | 6.71 m/s, 16° | - | - |
| 1777994414 | 20° C | 21% | - | - | 6.26 m/s, 6° | - | - |
| 1777993506 | 20.56° C | 21% | - | - | 7.15 m/s, 14° | - | - |
| 1777992599 | 21.11° C | 21% | - | - | 7.15 m/s, 12° | - | - |
* Rain since midnight (hover to see other rain measurements)
** Current wind speed in m/s (hover to see current wind gust speed)